Regional Weather Roundup
Issued by NWS

Home | Current Version | Previous Version | Graphics & Text | Print | Product List | Glossary On
Versions: 1 2 3 4 5 6 7 8 9 10 11 12 13 14 15 16 17 18 19 20 21 22 23 24 25 26 27 28 29 30 31 32 33 34 35 36 37 38 39 40 41 42 43 44 45 46 47 48 49 50
429
ASUS45 KCYS 250010
RWRWY

WYOMING REGIONAL WEATHER ROUNDUP
NATIONAL WEATHER SERVICE CHEYENNE WY
500 PM MST TUE JAN 24 2017

NOTE:  "FAIR" INDICATES FEW OR NO CLOUDS BELOW 12,000 FEET
WITH NO SIGNIFICANT WEATHER AND/OR OBSTRUCTIONS TO VISIBILITY.

WYZ001-250100-
YELLOWSTONE NATIONAL PARK

CITY           SKY/WX    TMP DP  RH WIND       PRES   REMARKS
LK YELLOWSTONE   N/A     14   7  73 NW3       29.72R
6HR MIN TEMP:  14; 6HR MAX TEMP:  19;

W YELLOWSTONE  NOT AVBL

$$
WYZ002>013-054>058-071-098>099-250100-
NORTHERN WYOMING

CITY           SKY/WX    TMP DP  RH WIND       PRES   REMARKS
JACKSON        MOCLDY    18  16  93 CALM      29.74R
CODY           FAIR      17  14  88 CALM      29.85R
GREYBULL       FAIR      21  14  74 NW9       29.86R WCI  11
6HR MIN TEMP:  21; 6HR MAX TEMP:  25; 6HR PCP: TRACE;

WORLAND        CLOUDY    20  16  84 N6        29.85R WCI  12
6HR MIN TEMP:  20; 6HR MAX TEMP:  23; 6HR PCP: TRACE;

SHERIDAN       CLOUDY    17  13  84 W8        29.89R WCI   7
6HR MIN TEMP:  16; 6HR MAX TEMP:  22; 6HR PCP:  0.04;

BUFFALO        CLOUDY    16  11  80 N9        29.83R WCI   4
6HR MIN TEMP:  16; 6HR MAX TEMP:  20; 6HR PCP: TRACE;

GILLETTE       LGT SNOW  17  15  92 N10       29.83R FOG     WCI   5
6HR MIN TEMP:  17; 6HR MAX TEMP:  19; 6HR PCP:  0.03;

HULETT         LGT SNOW  18  14  86 MISG      29.85R
NEWCASTLE      MOCLDY    21  12  68 N12G17    29.80R WCI   9

$$
WYZ014>020-022>026-101>103-250100-
CENTRAL WYOMING

CITY           SKY/WX    TMP DP  RH WIND       PRES   REMARKS
BIG PINEY      CLOUDY     9   6  88 SE5       29.74R FOG     WCI   1
6HR MIN TEMP:   9; 6HR MAX TEMP:  17; 6HR PCP: TRACE;

PINEDALE       LGT SNOW  14  12  92 SE7       29.75R VSB 1   WCI   4
DUBOIS         NOT AVBL
LANDER         LGT SNOW  18  15  88 SE8       29.79R FOG     WCI   8
6HR MIN TEMP:  17; 6HR MAX TEMP:  21; 6HR PCP:  0.05;

RIVERTON       FLURRIES  16  13  88 NE6       29.81R WCI   7
6HR MIN TEMP:  16; 6HR MAX TEMP:  20; 6HR PCP:  0.03;

CASPER         LGT SNOW  15  11  83 NW3       29.80R FOG
6HR MIN TEMP:  15; 6HR MAX TEMP:  17; 6HR PCP:  0.03;

DOUGLAS        FLURRIES  18  11  74 NW13      29.81R WCI   5
6HR MIN TEMP:  17; 6HR MAX TEMP:  19; 6HR PCP: TRACE;


$$
WYZ021-027>030-104>119-250100-
SOUTHERN WYOMING

CITY           SKY/WX    TMP DP  RH WIND       PRES   REMARKS
EVANSTON       CLOUDY    17  11  77 SW16      29.75R WCI   2
6HR MIN TEMP:  17; 6HR MAX TEMP:  20; 6HR PCP: TRACE;

ROCK SPRINGS   LGT SNOW  14  10  84 E6        29.75R VSB 1   WCI   5
6HR MIN TEMP:  14; 6HR MAX TEMP:  17; 6HR PCP: TRACE;

RAWLINS        CLOUDY     8   1  73 NW7       29.74R WCI  -3
6HR MIN TEMP:   7; 6HR MAX TEMP:  18; 6HR PCP: TRACE;

LARAMIE        MOCLDY     8   4  83 N20       29.64R WCI -11
6HR MIN TEMP:   8; 6HR MAX TEMP:  16; 6HR PCP: TRACE;

CHEYENNE       CLOUDY    15  11  83 N13       29.68R WCI   1
6HR MIN TEMP:  15; 6HR MAX TEMP:  18; 6HR PCP: TRACE;

TORRINGTON     LGT SNOW  20  13  74 NW12      29.78R WCI   8
6HR MIN TEMP:  20; 6HR MAX TEMP:  25; 6HR PCP: TRACE;


$$




USA.gov is the U.S. government's official web portal to all federal, state and local government web resources and services.